TimeCST,TemperatureF,Dew PointF,Humidity,Sea Level PressureIn,VisibilityMPH,Wind Direction,Wind SpeedMPH,Gust SpeedMPH,PrecipitationIn,Events,Conditions,WindDirDegrees,DateUTC
12:15 AM,29.8,26.1,86,30.10,10.0,West,8.1,-,N/A,,Clear,260,2013-11-18 06:15:00
12:35 AM,30.7,26.4,84,30.10,10.0,West,10.4,-,N/A,,Clear,270,2013-11-18 06:35:00
12:55 AM,29.1,25.3,86,30.10,10.0,West,9.2,-,N/A,,Clear,260,2013-11-18 06:55:00
1:15 AM,29.1,25.2,85,30.09,10.0,West,6.9,-,N/A,,Clear,270,2013-11-18 07:15:00
1:35 AM,28.0,24.4,86,30.10,10.0,WSW,5.8,-,N/A,,Clear,250,2013-11-18 07:35:00
1:55 AM,28.2,24.1,84,30.10,10.0,WSW,5.8,-,N/A,,Clear,250,2013-11-18 07:55:00
2:15 AM,28.0,23.9,84,30.11,10.0,West,6.9,-,N/A,,Clear,270,2013-11-18 08:15:00
2:35 AM,26.4,23.2,88,30.11,10.0,West,4.6,-,N/A,,Clear,270,2013-11-18 08:35:00
2:55 AM,25.7,22.8,89,30.11,10.0,West,5.8,-,N/A,,Clear,280,2013-11-18 08:55:00
3:15 AM,27.5,23.7,86,30.11,10.0,WNW,4.6,-,N/A,,Clear,290,2013-11-18 09:15:00
3:35 AM,27.3,23.4,85,30.11,10.0,WNW,3.5,-,N/A,,Clear,290,2013-11-18 09:35:00
3:55 AM,27.5,23.7,86,30.11,10.0,West,6.9,-,N/A,,Clear,280,2013-11-18 09:55:00
4:15 AM,28.2,24.3,85,30.12,10.0,WNW,6.9,-,N/A,,Clear,290,2013-11-18 10:15:00
4:35 AM,27.0,23.4,86,30.12,10.0,WNW,4.6,-,N/A,,Clear,290,2013-11-18 10:35:00
4:55 AM,27.3,23.9,87,30.13,10.0,Calm,Calm,-,N/A,,Clear,0,2013-11-18 10:55:00
5:15 AM,28.4,24.3,84,30.14,10.0,West,3.5,-,N/A,,Clear,280,2013-11-18 11:15:00
5:35 AM,27.9,23.9,85,30.15,10.0,West,4.6,-,N/A,,Clear,280,2013-11-18 11:35:00
5:55 AM,26.6,23.4,88,30.15,10.0,West,4.6,-,N/A,,Clear,270,2013-11-18 11:55:00
6:15 AM,26.6,22.8,86,30.16,10.0,WSW,5.8,-,N/A,,Clear,240,2013-11-18 12:15:00
6:35 AM,25.3,22.3,88,30.17,10.0,SW,5.8,-,N/A,,Clear,220,2013-11-18 12:35:00
6:55 AM,25.3,22.6,89,30.18,10.0,SW,6.9,-,N/A,,Clear,230,2013-11-18 12:55:00
7:15 AM,25.0,22.5,90,30.18,10.0,WSW,4.6,-,N/A,,Clear,240,2013-11-18 13:15:00
7:35 AM,25.7,22.6,88,30.19,10.0,WSW,4.6,-,N/A,,Clear,240,2013-11-18 13:35:00
7:55 AM,26.6,23.2,87,30.20,10.0,SW,5.8,-,N/A,,Clear,230,2013-11-18 13:55:00
8:15 AM,28.8,25.0,86,30.20,10.0,SW,5.8,-,N/A,,Clear,220,2013-11-18 14:15:00
8:35 AM,31.6,27.1,83,30.21,10.0,SW,5.8,-,N/A,,Clear,220,2013-11-18 14:35:00
8:55 AM,33.4,27.9,80,30.22,10.0,WSW,3.5,-,N/A,,Clear,240,2013-11-18 14:55:00
9:15 AM,34.7,28.2,77,30.22,10.0,SW,4.6,-,N/A,,Clear,230,2013-11-18 15:15:00
9:35 AM,36.9,28.9,73,30.22,10.0,WSW,4.6,-,N/A,,Clear,250,2013-11-18 15:35:00
9:55 AM,39.2,28.9,67,30.22,10.0,West,5.8,-,N/A,,Clear,260,2013-11-18 15:55:00
10:15 AM,41.5,27.9,58,30.23,10.0,WSW,6.9,-,N/A,,Clear,240,2013-11-18 16:15:00
10:35 AM,44.4,27.3,51,30.23,10.0,West,8.1,-,N/A,,Clear,260,2013-11-18 16:35:00
10:55 AM,46.6,25.3,43,30.23,10.0,WSW,11.5,-,N/A,,Clear,250,2013-11-18 16:55:00
11:15 AM,47.5,23.9,40,30.22,10.0,WSW,9.2,-,N/A,,Clear,250,2013-11-18 17:15:00
11:35 AM,48.9,24.4,38,30.22,10.0,WSW,6.9,-,N/A,,Clear,250,2013-11-18 17:35:00
11:55 AM,50.9,23.9,35,30.21,10.0,WSW,9.2,-,N/A,,Clear,250,2013-11-18 17:55:00
12:15 PM,53.4,22.5,30,30.20,10.0,SW,10.4,-,N/A,,Clear,230,2013-11-18 18:15:00
12:35 PM,55.4,22.5,28,30.19,10.0,SW,11.5,-,N/A,,Clear,230,2013-11-18 18:35:00
12:55 PM,56.5,22.1,26,30.18,10.0,WSW,8.1,-,N/A,,Clear,240,2013-11-18 18:55:00
1:15 PM,57.7,20.5,24,30.17,10.0,SW,12.7,17.3,N/A,,Clear,230,2013-11-18 19:15:00
1:35 PM,58.6,19.6,22,30.16,10.0,SW,12.7,-,N/A,,Clear,230,2013-11-18 19:35:00
1:55 PM,59.5,16.7,19,30.15,10.0,SW,15.0,20.7,N/A,,Clear,230,2013-11-18 19:55:00
2:15 PM,59.9,16.5,18,30.15,10.0,SW,15.0,-,N/A,,Clear,220,2013-11-18 20:15:00
2:35 PM,59.9,15.8,18,30.14,10.0,SW,12.7,17.3,N/A,,Clear,230,2013-11-18 20:35:00
2:55 PM,59.5,16.5,19,30.13,10.0,SW,13.8,-,N/A,,Clear,230,2013-11-18 20:55:00
3:15 PM,59.2,17.1,19,30.13,10.0,SSW,16.1,-,N/A,,Clear,210,2013-11-18 21:15:00
3:35 PM,58.1,19.0,22,30.13,10.0,SSW,12.7,-,N/A,,Clear,210,2013-11-18 21:35:00
3:55 PM,57.9,19.4,22,30.13,10.0,SSW,11.5,-,N/A,,Clear,210,2013-11-18 21:55:00
4:15 PM,56.8,19.2,23,30.13,10.0,SSW,15.0,-,N/A,,Clear,200,2013-11-18 22:15:00
4:35 PM,54.7,20.3,26,30.13,10.0,South,11.5,-,N/A,,Clear,190,2013-11-18 22:35:00
4:55 PM,52.9,21.7,30,30.12,10.0,SSW,11.5,-,N/A,,Clear,200,2013-11-18 22:55:00
5:15 PM,52.0,22.1,31,30.12,10.0,South,9.2,-,N/A,,Clear,180,2013-11-18 23:15:00
5:35 PM,50.7,22.5,33,30.12,10.0,South,6.9,-,N/A,,Clear,170,2013-11-18 23:35:00
5:55 PM,45.1,23.2,42,30.12,10.0,SSE,5.8,-,N/A,,Clear,150,2013-11-18 23:55:00
6:15 PM,43.5,23.0,44,30.12,10.0,SSE,9.2,-,N/A,,Clear,160,2013-11-19 00:15:00
6:35 PM,42.1,23.9,49,30.12,10.0,SSE,8.1,-,N/A,,Clear,160,2013-11-19 00:35:00
6:55 PM,41.9,24.8,51,30.12,10.0,SSE,9.2,-,N/A,,Clear,160,2013-11-19 00:55:00
7:15 PM,44.1,23.5,44,30.11,10.0,South,9.2,-,N/A,,Clear,170,2013-11-19 01:15:00
7:35 PM,45.7,23.0,41,30.11,10.0,South,10.4,-,N/A,,Clear,180,2013-11-19 01:35:00
7:55 PM,44.6,23.0,43,30.11,10.0,South,9.2,-,N/A,,Clear,170,2013-11-19 01:55:00
8:15 PM,42.4,23.4,47,30.12,10.0,South,10.4,-,N/A,,Clear,170,2013-11-19 02:15:00
8:35 PM,42.8,23.0,46,30.12,10.0,South,9.2,-,N/A,,Clear,170,2013-11-19 02:35:00
8:55 PM,42.4,23.4,47,30.12,10.0,South,9.2,-,N/A,,Clear,170,2013-11-19 02:55:00
9:15 PM,40.5,23.9,52,30.13,10.0,South,9.2,-,N/A,,Clear,170,2013-11-19 03:15:00
9:35 PM,40.1,23.9,52,30.13,10.0,South,8.1,-,N/A,,Clear,170,2013-11-19 03:35:00
9:55 PM,39.2,24.3,55,30.13,10.0,South,8.1,-,N/A,,Clear,170,2013-11-19 03:55:00
10:15 PM,40.3,24.1,52,30.13,10.0,South,6.9,-,N/A,,Clear,180,2013-11-19 04:15:00
10:35 PM,40.3,23.9,52,30.13,10.0,South,9.2,-,N/A,,Clear,190,2013-11-19 04:35:00
10:55 PM,39.7,23.9,53,30.12,10.0,South,9.2,-,N/A,,Clear,190,2013-11-19 04:55:00
11:15 PM,39.6,23.9,54,30.12,10.0,South,9.2,-,N/A,,Clear,190,2013-11-19 05:15:00
11:35 PM,39.4,24.3,55,30.12,10.0,SSW,10.4,-,N/A,,Clear,200,2013-11-19 05:35:00
11:55 PM,38.8,24.3,56,30.12,10.0,SSW,10.4,-,N/A,,Clear,200,2013-11-19 05:55:00